Home   Weather   Fauske   Past weeks

Flag for Norway Past Weather in Fauske, Norway — Yesterday and Last 2 Weeks

Now
55 °F

Scattered showers. Passing clouds.


Feels Like: 51 °F
Forecast: 39 / 53 °F
Wind: 18 mph from Southwest

Location: Bodo Vi

Current Time: Sep 1, 2016 at 4:01:21 AM

Latest Report: Sep 1, 2016 at 2:50 AM


Visibility: N/A

Pressure: 29.45 "Hg

Humidity: 88%

Dew Point: 52 °F

Location of FauskeLocation

Past Weather in Fauske — Graph

°F

Fauske Temperature Yesterday

Maximum temperature yesterday: 57 °F (at 2:20 PM)
Minimum temperature yesterday: 46 °F (at 12:50 AM)
Average temperature yesterday: 53 °F

High & Low Weather Summary for the Past Weeks

 TemperatureHumidityPressure
High70 °F (Aug 18, 12:50 PM)100% (Aug 20, 10:50 PM)30.27 "Hg (Aug 20, 10:50 PM)
Low45 °F (Aug 28, 6:20 AM)52% (Aug 18, 1:50 AM)29.42 "Hg (Aug 27, 5:20 AM)
Average55 °F79%29.94 "Hg
* Reported Aug 17 2:50 AM — Sep 1 2:50 AM, Fauske, Weather by CustomWeather, © 2016

Note: Actual official high and low records may vary slightly from our data, if they occured in-between our weather recording intervals... More about our weather records

Advertising

Fauske Weather History for the Previous 24 Hours

Scroll right to see more
 ConditionsComfort  
Time TempWeatherWind HumidityBarometerVisibility
2:50 AM
Thu, Sep 1
55 °FScattered showers. Passing clouds.18 mph88%29.45 "HgN/A
1:50 AM55 °FSprinkles. Passing clouds.17 mph88%29.45 "HgN/A
12:50 AM55 °FPassing clouds.14 mph94%29.45 "HgN/A
11:50 PM
Wed, Aug 31
55 °FPassing clouds.8 mph100%29.47 "HgN/A
11:20 PM55 °FPartly cloudy.8 mph94%29.47 "HgN/A
10:50 PM57 °FPartly cloudy.13 mph88%29.47 "HgN/A
10:20 PM55 °FPartly cloudy.7 mph100%29.47 "HgN/A
9:50 PM55 °FPartly cloudy.8 mph100%29.47 "HgN/A
9:20 PM55 °FBroken clouds.17 mph100%29.50 "HgN/A
8:50 PM55 °FBroken clouds.20 mph100%29.50 "HgN/A
8:20 PM57 °FScattered showers. Broken clouds.21 mph94%29.50 "HgN/A
7:50 PM57 °FScattered showers. Broken clouds.17 mph94%29.50 "HgN/A
7:20 PM57 °FBroken clouds.21 mph94%29.50 "HgN/A
6:50 PM55 °FSprinkles. Broken clouds.17 mph100%29.53 "HgN/A
6:20 PM55 °FSprinkles. Broken clouds.10 mph100%29.53 "HgN/A
5:50 PM57 °FSprinkles. Broken clouds.16 mph94%29.53 "HgN/A
5:20 PM57 °FSprinkles. Broken clouds.13 mph94%29.56 "HgN/A
4:50 PM57 °FBroken clouds.12 mph94%29.56 "HgN/A
4:20 PM57 °FScattered showers. Broken clouds.16 mph94%29.56 "HgN/A
3:50 PM57 °FScattered showers. Broken clouds.29 mph94%29.56 "HgN/A
3:20 PM57 °FBroken clouds.22 mph94%29.56 "HgN/A
2:50 PM57 °FLight rain. Partly sunny.25 mph94%29.56 "Hg5 mi
2:20 PM57 °FLight rain. Partly sunny.29 mph94%29.56 "HgN/A
1:50 PM55 °FLight rain. Partly sunny.9 mph94%29.56 "HgN/A
1:20 PM54 °FLight rain. Partly sunny.16 mph100%29.56 "HgN/A
12:50 PM54 °FRain. Broken clouds.14 mph94%29.56 "HgN/A
12:20 PM52 °FRain. Broken clouds.9 mph100%29.59 "Hg6 mi
11:50 AM52 °FRain. Broken clouds.8 mph100%29.59 "HgN/A
11:20 AM52 °FRain. Broken clouds.12 mph100%29.59 "Hg6 mi
10:50 AM52 °FRain. Partly sunny.9 mph94%29.59 "Hg6 mi
10:20 AM50 °FRain. Broken clouds.21 mph94%29.59 "Hg6 mi
9:50 AM50 °FRain. Broken clouds.20 mph94%29.59 "Hg4 mi
9:20 AM50 °FLight rain. Partly sunny.18 mph94%29.62 "HgN/A
8:50 AM50 °FLight rain. Partly sunny.18 mph94%29.62 "Hg5 mi
8:20 AM48 °FRain. Partly sunny.21 mph94%29.62 "HgN/A
7:50 AM48 °FLight rain. Partly sunny.21 mph87%29.62 "HgN/A
7:20 AM48 °FLight rain. Partly sunny.22 mph87%29.65 "HgN/A
6:50 AM48 °FLight rain. Partly sunny.18 mph82%29.65 "HgN/A
6:20 AM48 °FLight rain. Passing clouds.20 mph82%29.68 "HgN/A
5:50 AM48 °FPassing clouds.21 mph82%29.68 "HgN/A
5:20 AM48 °FPassing clouds.21 mph82%29.71 "HgN/A
4:50 AM48 °FPartly cloudy.20 mph82%29.71 "HgN/A
Weather by CustomWeather, © 2016

See weather overviewHow to use our weather pages